Location: Shannon
(40.5500°S, 175.4167°E)
Time: 20:52:38
(UTC+00:00)

Cosmos 1328 - Pass Details

Date: 17 November 2025
Orbit: 463 x 480 km, 82.5° (Epoch: 06 December)

Event Time Altitude Azimuth Distance (km) Brightness Sun altitude
Rises 14:40:40 0° 184° (S) 2,563 8.0 -20.0°
Reaches altitude 10° 14:42:49 10° 179° (S) 1,678 7.0 -19.7°
Maximum altitude 14:46:26 55° 100° (E) 591 4.2 -19.3°
Enters shadow 14:48:26 24° 30° (NNE) 1,054 5.1 -19.1°
